This demonstration page uses our WeatherBlox Daily Observations layout. Learn more.

Left ArrowRight Arrow

Hourly Observations for June 23, 2018

Temp ( °F °C ) Dew Point ( °F °C ) Humidity (%) Winds ( mph kmh ) Pressure ( in mb ) Visibility ( mi km ) Precip ( " mm )
12:32 am 00:32 Cloudy with Nearby Thunderstorms 64 18 61 16 88 88 Calm 29.83 1010 10 16 0.00 0.00
12:53 am 00:53 Cloudy 64 18 61 16 88 88 W 8 13 29.83 1010 10 16 0.00 0.00
12:57 am 00:57 Cloudy 64 17.8 60 15.6 87 87 W 12 19 29.85 1011 10 16 0.00 0.00
1:57 am 01:57 Mostly Clear 63 17.2 61 16.1 93 93 SE 10 17 29.79 1009 10 16 0.00 0.00
2:57 am 02:57 Clear 62 16.7 60 15.6 93 93 SE 7 11 29.75 1008 10 16 0.00 0.00
3:57 am 03:57 Mostly Cloudy 62 16.7 60 15.6 93 93 SW 7 11 29.76 1008 10 16 0.00 0.00
4:57 am 04:57 Clear 62 16.7 60 15.6 93 93 WSW 9 15 29.76 1008 10 16 0.00 0.00
5:57 am 05:57 Clear 62 16.7 59 15 90 90 WSW 3 6 29.78 1009 10 16 0.00 0.00
6:57 am 06:57 Sunny 60 15.6 58 14.4 93 93 S 5 7 29.79 1009 10 16 0.00 0.00
7:57 am 07:57 Sunny 63 17.2 59 15 87 87 SSW 9 15 29.78 1009 10 16 0.00 0.00
8:57 am 08:57 Sunny 70 21.1 58 14.4 66 66 W 10 17 29.78 1008 10 16 0.00 0.00
9:57 am 09:57 Sunny 74 23.3 59 15 60 60 W 13 20 29.78 1008 10 16 0.00 0.00
10:57 am 10:57 Sunny 78 25.6 58 14.4 50 50 W 12 19 29.77 1008 10 16 0.00 0.00
11:57 am 11:57 Sunny 80 26.7 57 13.9 45 45 NW 12 19 29.76 1008 10 16 0.00 0.00
12:57 pm 12:57 Sunny 82 27.8 57 13.9 42 42 WNW 13 20 29.75 1008 10 16 0.00 0.00
1:57 pm 13:57 Sunny 85 29.4 57 13.9 39 39 W 15 24 29.74 1007 10 16 0.00 0.00
2:57 pm 14:57 Sunny 86 30 56 13.3 36 36 W 17 28 29.73 1007 10 16 0.00 0.00
3:57 pm 15:57 Mostly Sunny 86 30 58 14.4 39 39 W 10 17 29.72 1006 10 16 0.00 0.00
4:57 pm 16:57 Mostly Cloudy 84 28.9 61 16.1 46 46 SSW 16 26 29.71 1006 10 16 0.00 0.00
5:57 pm 17:57 Sunny 86 30 60 15.6 42 42 SSW 13 20 29.69 1005 10 16 0.00 0.00
6:57 pm 18:57 Sunny 85 29.4 61 16.1 45 45 S 10 17 29.69 1005 10 16 0.00 0.00
7:57 pm 19:57 Sunny 83 28.3 63 17.2 51 51 S 7 11 29.70 1006 10 16 0.00 0.00
8:57 pm 20:57 Sunny 79 26.1 62 16.7 56 56 SSW 12 19 29.70 1006 10 16 0.00 0.00
9:57 pm 21:57 Clear 75 23.9 62 16.7 64 64 SSW 10 17 29.72 1006 10 16 0.00 0.00
10:57 pm 22:57 Clear 74 23.3 60 15.6 62 62 SW 6 9 29.69 1006 10 16 0.00 0.00
11:57 pm 23:57 Clear 67 19.4 62 16.7 84 84 NE 9 15 29.75 1007 10 16 0.00 0.00

Powered by AerisWeather